默认 日期 大小 文件数 浏览量 最新下载 xml
4:55磁力链接相关资源由用户搜索指令自动获取,结果来源于网络,本站不存储任何资料,亦不承担任何责任,请于24小时内删除,搜索到889个磁力,用时22ms。
    {"Setup_Poise_Content_v1-1.exe": 90708032, "Setup_Poise_32bit_1-1-55-4_Windows_Full.exe": 6036809, "Setup_Poise_64bit_1-1-55-4_Windows_Full.exe": 6275196}
创建时间: 2018-10-27 14:25:27 大小:98.25 MB 文件数量:3 热度:113 最近下载:2025-10-11 00:15:02
    {"MacheteInst.msi": 2567680, "FFDShow MPEG-4.rar": 19811825}
创建时间: 2018-10-28 12:43:36 大小:21.34 MB 文件数量:2 热度:24 最近下载:2025-08-06 07:23:03
    ... .41-3.55": {"NPEB00645_ODDWORLD_STRANGERS_WRATH_HD__FIX102.pkg": 4599424}, "Fix Rogero 4.21-4.30": {"NPEB00645_ODDWORLD_STRANGERS_WRATH_HD_FIX102 ...
创建时间: 2018-10-29 16:08:05 大小:3.39 GB 文件数量:4 热度:31 最近下载:2025-10-13 02:45:02
    {"ReZero Arc 4 (Ch 1-55) - Tappei Nagatsuki.pdf": 6237176, "ReZero Arc 4 (Ch 1-55) - Tappei Nagatsuki.epub": 2617562, "_____padding_file_0_if you see this file, please update to BitComet 0.85 or above____": 3878}
创建时间: 2018-11-03 03:53:18 大小:8.45 MB 文件数量:3 热度:18 最近下载:2025-08-04 08:44:02
    ... ": {"elcomsoft.advanced.archive.password.recovery.4.5.x[standard]-patch.exe ... , "elcomsoft.advanced.archive.password.recovery.4.5.x[enterprise]-patch.exe ... , "elcomsoft.advanced.archive.password.recovery.4.5.x[professional]-patch.exe ...
创建时间: 2018-11-10 04:54:18 大小:7.66 MB 文件数量:10 热度:9 最近下载:2025-01-20 14:59:07
    {"autorun.pdf": 7696, "Torrent downloaded from AhaShare.com.txt": 48, "BlueStacks V 4 31 55 2507 Final [Latest Update].exe": 29831268, "BlueStacks V 4 31 55 2507 Final [Latest Update].nfo": 1060}
创建时间: 2018-11-11 20:51:52 大小:28.46 MB 文件数量:4 热度:12 最近下载:2025-01-18 10:55:02
    {"Keygen": {"Readme.txt": 53, "keygen.exe": 84992}, "Extra Addons": {"DS4_GoZ_1.3.2.118_Win32.exe": 7880720, "DS4_GoZ_1.3.2.118_Win64.exe": 8090050, "DS4_3DBridge_1.3.2.118_Win32.exe": 6883069, "DS4_3DBridge_1.3.2.118_Win64.exe": 6907523, " ...
创建时间: 2018-11-13 03:08:57 大小:902.7 MB 文件数量:10 热度:10 最近下载:2025-01-18 06:11:08
    {"REBUG_3.55.3_REX_PS3UPDAT.PUP": 194269097, "REBUG_4.21.1_REX_PS3UPDAT.PUP": 208851281, "REBUG_3.55.3_999_DGR_PS3UPDAT.PUP": 194269117}
创建时间: 2018-11-13 08:58:36 大小:569.72 MB 文件数量:3 热度:9 最近下载:2025-04-12 07:11:01
    {"I Am Alive.pkg": 2048188768, "NPUB30383_I_AM_ALIVE_FIX.pkg": 11003696, "UP0001-NPUB30383_00-IAMALIVELICENSE1.edat": 352}
创建时间: 2018-11-15 02:50:58 大小:1.92 GB 文件数量:3 热度:12 最近下载:2025-09-19 08:17:06
    {"readme.txt": 1331, "GianaSisters 4.21+ FIX": {"exdata": {"UP4402-NPUB31272_00- ... ": 26305504}, "GianaSisters 3.40 3.55 FIX": {"exdata": {"UP4402-NPUB31272_00-GIANAPS3BFGKEYID ...
创建时间: 2018-11-17 22:00:32 大小:120.61 MB 文件数量:10 热度:13 最近下载:2025-04-14 15:20:02
    ... -Moon Knight.pkg": 313304160}, "UPDATE 4": {"UP4042-NPUB30573_00-ZENPINBALL200001-A0104-V0100 ... ": 344628704}, "README.txt": 670, "FIX 4.21 Icluded Avengers, World War ... ": 4042672}, "FIX 3.41-3.55 Icluded Avengers, World War Hulk ...
创建时间: 2018-11-24 16:33:10 大小:1.58 GB 文件数量:16 热度:20 最近下载:2025-08-02 09:50:04
    {"The Sound - Thunder Up [1987]": {"04. Kinetic.mp3": 7598365, "05. Iron Years.mp3": 6058604, "03. Barria Alta.mp3": 6915629, "02. Hand Of Love.mp3": 4779648, "06. Prove Me Wrong.mp3": 3571537, "09. I Give You Pain.mp3": 7353859, "01. Acceleration Group. ...
创建时间: 2018-11-30 10:26:29 大小:272.9 MB 文件数量:48 热度:23 最近下载:2025-10-15 10:20:02
    ... sha256": 1120, ".NET Framework 4.8.1": {"ndp481-x86 ... }, "ISTA_4.55.12_Standalone_EN_Bimmerscene.7z": 8413299, "ISTA_4.55.12_Standalone_EN_Bimmerscene.exe": ... 4195782, "ISTA_4.55.12_Standalone_EN_Bimmerscene-FILES. ...
创建时间: 2025-08-31 14:35:48 大小:26.04 GB 文件数量:12 热度:2 最近下载:2025-10-13 19:30:02
    ... sha256": 1117, ".NET Framework 4.8.1": {"ndp481-x86 ... }, "ISTA_4.55.30_Standalone_ENFR_MPassion.7z": 8436083, "ISTA_4.55.30_Standalone_ENFR_MPassion.exe": ... 4195776, "ISTA_4.55.30_Standalone_ENFR_MPassion-FILES. ...
创建时间: 2025-10-05 09:58:49 大小:29.75 GB 文件数量:12 热度:1 最近下载:2025-10-09 12:05:02
    ... .sha256": 1093, ".NET Framework 4.8.1": {"ndp481-x86-x64 ... 63610344}, "ISTA_4.55.30_Standalone_EN_CT.7z": 8424195, "ISTA_4.55.30_Standalone_EN_CT.exe": 4195728 ... , "ISTA_4.55.30_Standalone_EN_CT-FILES.7z ...
创建时间: 2025-10-06 11:44:08 大小:27.33 GB 文件数量:12 热度:2 最近下载:2025-10-13 19:30:02
    ... sha256": 1120, ".NET Framework 4.8.1": {"ndp481-x86 ... }, "ISTA_4.55.40_Standalone_EN_Bimmerscene.7z": 8431955, "ISTA_4.55.40_Standalone_EN_Bimmerscene.exe": ... 4195782, "ISTA_4.55.40_Standalone_EN_Bimmerscene-FILES. ...
创建时间: 2025-10-29 19:57:27 大小:27.2 GB 文件数量:12 热度:0
    ... sha256": 1120, ".NET Framework 4.8.1": {"ndp481-x86 ... }, "ISTA_4.55.40_Standalone_EN_Bimmerscene.7z": 8431955, "ISTA_4.55.40_Standalone_EN_Bimmerscene.exe": ... 4195782, "ISTA_4.55.40_Standalone_EN_Bimmerscene-FILES. ...
创建时间: 2025-11-29 10:07:54 大小:27.2 GB 文件数量:13 热度:0
    {"Autodesk AutoCAD LT 2025 v10.4.55 Cracked.iso": 2315780096}
创建时间: 2026-01-07 10:12:07 大小:2.16 GB 文件数量:1 热度:0
    ... )_to_1.0.4(55)_(86434).exe": 170691152}, "setup_chains_of_freedom_1.0.4(55)_(64bit ... )_(86434).exe": 824872, "setup_chains_of_freedom_1.0.4(55)_ ...
创建时间: 2026-02-23 09:22:52 大小:2.62 GB 文件数量:5 热度:0
    {"PS4UPDATE.PUP": 339864576}
创建时间: 2026-04-08 17:38:40 大小:324.12 MB 文件数量:1 热度:0